KN4QD-13 Weather Reports


time (UTC)temp
F
wind
direction
speed
knots
gust
knots
rain 1hr
in
rain 24hr
in
rain mn
in
humidity
%
barometer
mb
20260504040216 46 0.0 0.0 0.00 0.00 0.00 64 1017.5
20260504035236 47 0.0 0.0 0.00 0.00 0.00 62 1017.2
20260504034216 47 0.0 0.0 0.00 0.00 0.00 64 1017.2
20260504033216 47 0.0 0.0 0.00 0.00 0.00 64 1017.1
20260504032216 47 0.0 0.0 0.00 0.00 0.00 59 1017.1
20260504031216 47 0.0 0.0 0.00 0.00 0.00 60 1017.0
20260504030216 47 0.0 0.0 0.00 0.00 0.00 60 1017.0
20260504025216 47 0.0 0.0 0.00 0.00 0.00 60 1016.9
20260504024216 48 0.0 0.0 0.00 0.00 0.00 58 1017.2
20260504023216 48 0.0 0.0 0.00 0.00 0.00 60 1017.0
20260504022216 48 0.0 0.0 0.00 0.00 0.00 59 1016.6
20260504021216 49 0.0 0.0 0.00 0.00 0.00 59 1016.8
20260504020236 49 0.0 0.0 0.00 0.00 0.00 57 1016.7
20260504015216 49 0.0 0.0 0.00 0.00 0.00 57 1016.4
20260504014216 50 0.0 0.0 0.00 0.00 0.00 55 1016.4
20260504013216 50 0.0 0.0 0.00 0.00 0.00 55 1016.3
20260504012256 51 0.0 0.0 0.00 0.00 0.00 53 1016.1
20260504011216 51 0.0 0.0 0.00 0.00 0.00 53 1016.1
20260504010216 51 0.0 0.0 0.00 0.00 0.00 55 1016.0
20260504005216 51 0.0 0.0 0.00 0.00 0.00 57 1015.4
20260504004216 52 0.0 0.0 0.00 0.00 0.00 58 1015.6
20260504003236 52 0.0 0.0 0.00 0.00 0.00 56 1015.6
20260504002216 53 0.0 0.0 0.00 0.00 0.00 55 1015.3
20260504001256 53 0.0 0.0 0.00 0.00 0.00 51 1015.5
20260504000216 53 0.0 0.0 0.00 0.00 0.00 53 1015.4
20260503235216 54 0.0 0.0 0.00 0.00 0.00 52 1015.4
20260503234216 54 0.0 0.0 0.00 0.00 0.00 47 1015.4
20260503233216 54 0.0 0.0 0.00 0.00 0.00 48 1015.3
20260503232236 55 0.0 0.0 0.00 0.00 0.00 48 1015.3
20260503231216 55 0.0 0.0 0.00 0.00 0.00 47 1015.2
20260503230216 55 0.0 0.0 0.00 0.00 0.00 44 1015.2
20260503225216 55 0.0 0.0 0.00 0.00 0.00 45 1015.2
20260503224216 55 0.0 0.0 0.00 0.00 0.00 42 1015.2
20260503223216 56 0.0 0.0 0.00 0.00 0.00 42 1015.5
20260503222216 56 0.0 0.0 0.00 0.00 0.00 43 1015.5
20260503221236 56 0.0 0.0 0.00 0.00 0.00 43 1015.5
20260503220216 56 0.0 0.0 0.00 0.00 0.00 42 1015.7
20260503215216 57 0.0 0.9 0.00 0.00 0.00 41 1015.9
20260503214216 57 0.0 0.0 0.00 0.00 0.00 42 1016.0
20260503213216 58 0.0 0.9 0.00 0.00 0.00 40 1016.1
20260503212216 58 0.0 0.0 0.00 0.00 0.00 39 1016.1
20260503211216 58 0.0 0.0 0.00 0.00 0.00 39 1016.2
20260503210216 59 0.0 0.9 0.00 0.00 0.00 40 1016.5
20260503205216 59 338 0.9 0.9 0.00 0.00 0.00 35 1016.6
20260503204216 60 0.0 0.9 0.00 0.00 0.00 35 1017.0
20260503203216 60 0.0 0.0 0.00 0.00 0.00 33 1016.9
20260503202216 60 0.0 0.9 0.00 0.00 0.00 33 1017.1
20260503201216 60 135 0.9 2.6 0.00 0.00 0.00 31 1017.1
20260503200236 60 0.0 1.7 0.00 0.00 0.00 31 1017.4
20260503195216 60 0.0 0.0 0.00 0.00 0.00 32 1017.5
20260503194215 59 0.0 0.9 0.00 0.00 0.00 30 1017.5
20260503193236 60 90 0.9 1.7 0.00 0.00 0.00 30 1017.7
20260503192215 60 0.0 0.0 0.00 0.00 0.00 32 1017.9
20260503191215 60 90 1.7 2.6 0.00 0.00 0.00 29 1018.0
20260503190215 59 0.0 0.9 0.00 0.00 0.00 28 1018.1
20260503185215 61 68 0.9 2.6 0.00 0.00 0.00 28 1018.2
20260503184215 61 0.0 0.9 0.00 0.00 0.00 28 1018.5
20260503183215 62 90 0.9 1.7 0.00 0.00 0.00 28 1018.4
20260503182235 62 68 0.9 1.7 0.00 0.00 0.00 30 1018.8
20260503181215 63 113 0.9 1.7 0.00 0.00 0.00 30 1018.8
20260503180235 62 0.0 0.9 0.00 0.00 0.00 34 1018.8
20260503175215 63 0.0 0.9 0.00 0.00 0.00 33 1018.8
20260503174215 61 158 0.9 1.7 0.00 0.00 0.00 38 1018.7
20260503173215 60 0.0 1.7 0.00 0.00 0.00 41 1018.8
20260503172215 60 0.0 0.0 0.00 0.00 0.00 39 1019.1
20260503171235 60 0.0 0.0 0.00 0.00 0.00 38 1019.2
20260503170215 60 135 0.9 2.6 0.00 0.00 0.00 41 1019.0
20260503150215 47 90 1.7 3.5 0.00 0.00 0.00 61 1018.6
20260503140215 44 113 0.9 2.6 0.00 0.00 0.00 65 1018.0
20260503131217 42 0.0 0.0 0.00 0.00 0.00 72 1017.7
20260503130217 41 0.0 0.9 0.00 0.00 0.00 75 1017.7
20260503110217 36 0.0 0.0 0.00 0.00 0.00 86 1016.6
20260503100237 36 0.0 0.0 0.00 0.00 0.00 84 1015.9
20260503090217 37 0.0 0.0 0.00 0.00 0.00 81 1015.8
20260503081217 38 0.0 0.0 0.00 0.00 0.00 80 1016.0
20260503080217 38 0.0 0.0 0.00 0.00 0.00 80 1016.0
20260503072217 38 0.0 0.0 0.00 0.00 0.00 79 1015.6
20260503071217 38 0.0 0.0 0.00 0.00 0.00 79 1015.5
20260503070216 39 0.0 0.0 0.00 0.00 0.00 80 1015.5
20260503060216 40 0.0 0.0 0.00 0.00 0.00 77 1014.8
20260503054216 40 0.0 0.0 0.00 0.00 0.00 76 1015.2
20260503053216 40 0.0 0.0 0.00 0.00 0.00 76 1015.3
20260503052216 40 0.0 0.0 0.00 0.00 0.00 75 1015.3
20260503051216 40 0.0 0.0 0.00 0.00 0.00 75 1015.2
20260503050216 40 0.0 0.0 0.00 0.00 0.00 75 1015.3
20260503045216 40 0.0 0.0 0.00 0.00 0.00 75 1015.2
20260503044216 40 0.0 0.0 0.00 0.00 0.00 74 1015.1
20260503043216 40 0.0 0.0 0.00 0.00 0.00 75 1015.1
20260503042216 40 0.0 0.0 0.00 0.00 0.00 74 1014.7
20260503041216 40 0.0 0.0 0.00 0.00 0.00 74 1014.7